Погода в Поныри

Погода в Поныри : погода сейчас, прогноз погоды и архив. Всё, что Вы хотите узнать о погоде в Поныри!

Хотите узнать прогноз погоды в Поныри? Тогда Вам сюда: Погода в Поныри

Поиск расширенной информации на нашем сайте:

Другие новости

Новости СМИ2

Главная страница сайта

Новости сайта

03.07.2017

Напоминаем, что на нашем специализированном сайте Метеоцентр.Азия вы можете получить высокодетализированные автоматические прогнозы погоды по пунктам России, СНГ и мира в авиационном формате (включающие направление и скорость ветра, видимость, явления погоды, количество и форму облачности, нижнюю и верхнюю границу облачности).


Погода в Поныри - сегодня

Время (UTC), дата Ветер
(°,м/с) 
Видим.   Явления Облачность Т
(°С)
Тd
(°С)
f(%) Тe
(°С)
Pmin
(гПа)
dP
(гПа)
Po
(мм)
O2
(г/м3)
Тmin Tmax R s Состояние
почвы
00 19.11.17 180 (Ю) 4000 м  слаб. снег  10/10 300 м 
[Frnb|Ns]
+0.4 -0.5 94 1015.9  -1.3  739  297           
03 19.11.17 160 (Ю) 4000 м  в посл. час снег  10/10 300 м 
[Frnb|Ns]
+0.1 -0.5 96 -1  1014  -1.8  737  297  +0       
06 19.11.17 170 (Ю) 1000 м  дымка{снег}  10/10 300 м 
[St]
+0.3 +0 98 1013  -1  736  296  +0       
09 19.11.17 150 (ЮВ) 2000 м  в посл. час туман  10/10 300 м 
[St]
+0.6 +0.1 96 1011.9  -1.1  736  296           
12 19.11.17 170 (Ю) 4000 м  дымка{туман}  10/10 300 м 
[St]
+1.4 +0.9 96 +1  1009.9  -1.8  734  294           
15 19.11.17 220 (ЮЗ) 2000 м  слаб. морось  10/10 300 м 
[St]
+1.6 +1.3 98 +1  1009.7  -0.2  734  294      0.3     
18 19.11.17 220 (ЮЗ) 2000 м  слаб. морось  10/10 300 м 
[St]
+0.9 +0.4 96 +2  1009.6  -0.1  734  295    +1.7     
21 19.11.17 230 (ЮЗ) 4000 м  дымка{морось}  10/10 300 м 
[St]
+1.1 +0.6 96 1010.6  735  295           
00 20.11.17 260 (З) 4000 м  дымка{морось}  10/10 300 м 
[St]
+1.3 +0.8 96 +1  1011.6  0.9  735  295           
03 20.11.17 300 (СЗ) 2000 м  дымка  10/10 300 м 
[St]
+1.4 +0.9 96 +2  1011.3  -0.2  735  295  +0.9    0.9     
06 20.11.17 170 (Ю) 2000 м  дымка  10/10 300 м 
[St]
+1.3 +0.8 96 +2  1012.6  1.2  736  295  +0.9    0.0     
09 20.11.17 060 (СВ) 1000 м  дымка  10/10 300 м 
[St]
+2 +0.9 92 +1  1012.5  736  294           
12 20.11.17 060 (СВ) 4000 м  дымка  10/10 300 м 
[St]
+2.4 +1.1 91 +1  1011.2  -1.2  735  293           
15 20.11.17 060 (СВ) 4000 м  слаб. дождь  10/10 300 м 
[Frnb|Ns]
+1.2 +0.4 94 1010.3  -1  735  295      0.8     
18 20.11.17 040 (СВ) 4000 м  слаб. снег{дождь}  10/10 300 м 
[Frnb|Ns]
-0.1 -0.7 96 -2  1008.7  -1.7  733  296    +2.6     
21 20.11.17 360 (С) 4000 м  слаб. снег  10/10 300 м 
[Frnb|Ns]
+0.1 -0.5 96 -2  1006.8  -1.8  732  295           
00 21.11.17 340 (С) 4000 м  дымка{снег}  10/10 300 м 
[St]
-0.4 -1 96 -3  1006.4  -0.6  731  295           
03 21.11.17 330 (СЗ) 4000 м  дымка  10/10 300 м 
[St]
-0.7 -1.4 95 -3  1006.6  0.2  732  296  -0.9       
06 21.11.17 340 (С) 4000 м  дымка  10/10 300 м 
[St]
-0.4 -1.3 94 -2  1006.6  732  295  -0.9    равномерный
мокрый или
старый снег
100% 
09 21.11.17 320 (СЗ) 10 км    10/10 300 м 
[St]
-0.4 -1.6 92 -2  1007.6  732  296           
12 21.11.17 330 (СЗ) 10 км    10/10 600 м 
[Sc]
-0.2 -2 88 -2  1007.4  -0.2  732  295           
15 21.11.17 330 (СЗ) 10 км    10/10 600 м 
[Sc]
-0.8 -2.1 91 -3  1007.9  0.5  733  296           
18 21.11.17 330 (СЗ) 10 км    10/10 600 м 
[Sc]
-1.1 -2.4 91 -4  1008  733  297    -0.2       
21 21.11.17 320 (СЗ) 10 км    10/10 600 м 
[Sc]
-1.8 -2.9 92 -5  1008.2  0.2  733  297           
00 22.11.17 330 (СЗ) 4{10}  10 км    10/10 600 м 
[Sc]
-2 -3.5 89 -5  1008.3  733  298           
Время (UTC), дата Ветер
(°,м/с) 
Видим.   Явления Облачность Т
(°С)
Тd
(°С)
f(%) Тe
(°С)
Pmin
(гПа)
dP
(гПа)
Po
(мм)
O2
(г/м3)
Тmin Tmax R s Состояние
почвы

Для получения пояснительной информации подведите курсор к названию столбца.

ПОГОДА в Поныри - архив

Всё, что Вы хотите узнать о погоде в Поныри - удобно и подробно!

Выберите нужную дату (начиная с 1 января 2015* года) и нажмите кнопку "Найти".
Будут отображены архивные сводки погоды по пункту Поныри, начиная с указанной даты.


Отображать данные в формате CSV (для использования в таблицах Excel)


Внимание! Наш архив погоды предназначен исключительно для личного некоммерческого использования в познавательных целях. Если Вам необходимы официальные справки о состоянии погоды (для производственных, юридических, коммерческих и т.п. целей), обращайтесь в органы Росгидромета.

*Примечание: данная дата относится к архиву по метеостанциям СССР (Россия, СНГ, Балтия).
Архив по метеостанциям Зарубежной Европы и Азии (кроме Китая) хранится 10 дней, по другим регионам земного шара (Китай, Африка, Америка, Австралия, Океания) - 1 день.

Поныри - район местоположения метеостанции


Название, широта, долгота, высота метеостанции:
Поныри 52.3°ш. 36.3°д. 251 м над ур. моря [Российская Федерация]

Дополнительная информация

В oтличие oт бoльшинства пoгoдных сайтoв мы публикуем пoдрoбную метеoинфoрмацию в детальнoм прoфессиoнальнoм фoрмате.

Характеристики температуры и влажнoсти вoздуха измеряются на высoте 2 м в тени вдали oт зданий и деревьев.
Скoрoсть ветра измеряется на высoте 10 м (на урoвне рoста челoвека скoрoсть ветра ниже в 1.5-2 раза). Если метеoстанция нахoдится в гoрoде или в лесу, тo скoрoсть ветра занижена на 2-4 м/с пo сравнению с oткрытым местoм. Скoрoсть ветра над акватoриями крупных рек и oзёр, а также на вершинах хoлмoв на 2-5 м/с выше, чем в oбычных услoвиях.
Атмoсфернoе давление в разных тoчках местнoсти мoжет значительнo oтличаться oт давления на метеoстанции, в зависимoсти oт услoвий рельефа (при пoдъёме на 10 м давление пoнижается примернo на 1 мм рт.ст.).